RYR12CJ EPPO-LATI

Flight info

Callsign RYR12CJ
Flight time 1h 42m
Altitude 37000
Route XIDNA2B XIDNA DCT DESEN DCT VALPI DCT XOMBA DCT BABIT DCT TADAM DCT AKIKA T8 INLOT INLOT3N
Aircraft B38M/M-SDE1FGHILORVWXY/HB1

Departure

Time 2026-05-04 09:34
Airport Poznań-Ławica Airport (EPPO)

Arrival

Time 2026-05-04 11:16
Airport Tirana International Airport Mother Teresa (LATI)
Time Latitude Longitude Altitude Speed Heading
2026-05-04 09:21 52.41555 16.83123 291 ft 0 kts 193°
2026-05-04 09:28 52.41552 16.83118 294 ft 1 kts 221°
2026-05-04 09:28 52.41556 16.83100 293 ft 2 kts 317°
2026-05-04 09:28 52.41589 16.83117 295 ft 9 kts 36°
2026-05-04 09:29 52.41634 16.83117 291 ft 7 kts 310°
2026-05-04 09:29 52.41641 16.83005 293 ft 15 kts 272°
2026-05-04 09:29 52.41695 16.82851 291 ft 16 kts 342°
2026-05-04 09:29 52.41796 16.82889 292 ft 16 kts 18°
2026-05-04 09:30 52.41857 16.83026 292 ft 18 kts 104°
2026-05-04 09:30 52.41821 16.83208 291 ft 15 kts 109°
2026-05-04 09:30 52.41792 16.83350 291 ft 12 kts 108°
2026-05-04 09:30 52.41789 16.83367 293 ft 3 kts 108°
2026-05-04 09:31 52.41778 16.83427 291 ft 10 kts 107°
2026-05-04 09:31 52.41745 16.83596 292 ft 20 kts 107°
2026-05-04 09:31 52.41702 16.83821 292 ft 19 kts 107°
2026-05-04 09:31 52.41699 16.84012 293 ft 16 kts 40°
2026-05-04 09:32 52.41810 16.84052 293 ft 17 kts 334°
2026-05-04 09:32 52.41862 16.83866 295 ft 22 kts 286°
2026-05-04 09:34 52.44251 16.71502 3783 ft 238 kts 285°
2026-05-04 09:34 52.44750 16.68875 4822 ft 246 kts 286°
2026-05-04 09:34 52.45263 16.66213 5914 ft 250 kts 286°
2026-05-04 09:34 52.45783 16.63476 7070 ft 253 kts 286°
2026-05-04 09:35 52.46313 16.60689 8103 ft 257 kts 285°
2026-05-04 09:35 52.46851 16.57862 9141 ft 262 kts 285°
2026-05-04 09:35 52.47353 16.54982 10114 ft 264 kts 276°
2026-05-04 09:35 52.47240 16.52036 11121 ft 259 kts 250°
2026-05-04 09:37 52.35270 16.48780 15841 ft 341 kts 157°
2026-05-04 09:37 52.33153 16.50602 16543 ft 344 kts 157°
2026-05-04 09:38 52.31019 16.52434 17196 ft 350 kts 157°
2026-05-04 09:38 52.28846 16.54294 17846 ft 355 kts 156°
2026-05-04 09:38 52.26647 16.56174 18493 ft 359 kts 156°
2026-05-04 09:38 52.24418 16.58077 19108 ft 363 kts 156°
2026-05-04 09:39 52.22171 16.59993 19716 ft 367 kts 156°
2026-05-04 09:39 52.19896 16.61931 20316 ft 370 kts 156°
2026-05-04 09:39 52.17603 16.63882 20879 ft 374 kts 156°
2026-05-04 09:39 52.15282 16.65849 21434 ft 377 kts 158°
2026-05-04 09:40 52.12897 16.67647 21980 ft 380 kts 160°
2026-05-04 09:40 52.10482 16.69455 22520 ft 383 kts 159°
2026-05-04 09:40 52.08051 16.71285 23047 ft 387 kts 159°
2026-05-04 09:40 52.05601 16.73133 23571 ft 390 kts 159°
2026-05-04 09:41 52.03126 16.74998 24100 ft 394 kts 159°
2026-05-04 09:42 51.85325 16.88350 27450 ft 411 kts 159°
2026-05-04 09:43 51.82754 16.90270 27865 ft 414 kts 158°
2026-05-04 09:43 51.80132 16.92225 28289 ft 416 kts 158°
2026-05-04 09:43 51.77503 16.94182 28724 ft 416 kts 158°
2026-05-04 09:43 51.74858 16.96148 29026 ft 421 kts 158°
2026-05-04 09:44 51.72192 16.98129 29424 ft 423 kts 158°
2026-05-04 09:44 51.69479 16.99951 29783 ft 422 kts 167°
2026-05-04 09:44 51.66622 17.00996 30133 ft 422 kts 170°
2026-05-04 09:46 51.46202 17.08626 32435 ft 438 kts 170°
2026-05-04 09:46 51.43231 17.09727 32741 ft 440 kts 170°
2026-05-04 09:46 51.40243 17.10833 33030 ft 442 kts 170°
2026-05-04 09:47 51.37240 17.11943 33329 ft 444 kts 170°
2026-05-04 09:47 51.34233 17.13053 33654 ft 445 kts 170°
2026-05-04 09:49 51.13227 17.20767 36087 ft 442 kts 170°
2026-05-04 09:49 51.10231 17.21862 36367 ft 442 kts 170°
2026-05-04 09:49 51.07229 17.22957 36626 ft 442 kts 169°
2026-05-04 09:51 50.89486 17.29399 36998 ft 433 kts 169°
2026-05-04 09:51 50.83598 17.31526 36999 ft 434 kts 169°
2026-05-04 09:52 50.77710 17.33648 36999 ft 434 kts 169°
2026-05-04 09:52 50.71810 17.35768 37004 ft 435 kts 169°
2026-05-04 09:53 50.65905 17.37885 37007 ft 435 kts 169°
2026-05-04 09:53 50.59995 17.39998 37009 ft 436 kts 169°
2026-05-04 09:54 50.54114 17.42095 37013 ft 436 kts 169°
2026-05-04 09:54 50.48192 17.44201 37017 ft 437 kts 169°
2026-05-04 09:55 50.42262 17.46305 37020 ft 437 kts 169°
2026-05-04 09:55 50.36330 17.48405 37032 ft 438 kts 169°
2026-05-04 09:56 50.30388 17.50503 37041 ft 438 kts 169°
2026-05-04 09:56 50.25402 17.52274 37040 ft 438 kts 169°
2026-05-04 09:57 50.19451 17.54395 37041 ft 439 kts 169°
2026-05-04 09:57 50.13495 17.56513 37047 ft 439 kts 169°
2026-05-04 09:58 50.07542 17.58623 37043 ft 439 kts 169°
2026-05-04 09:58 50.01579 17.60732 37049 ft 440 kts 169°
2026-05-04 10:00 49.77720 17.69118 37041 ft 440 kts 168°
2026-05-04 10:04 49.35841 17.83634 37061 ft 441 kts 169°
2026-05-04 10:04 49.29854 17.85689 37069 ft 441 kts 168°
2026-05-04 10:05 49.23854 17.87742 37072 ft 442 kts 169°
2026-05-04 10:05 49.17856 17.89791 37061 ft 441 kts 168°
2026-05-04 10:06 49.11866 17.91831 37066 ft 442 kts 168°
2026-05-04 10:06 49.05862 17.93872 37071 ft 442 kts 168°
2026-05-04 10:08 48.84474 17.96643 37083 ft 443 kts 178°
2026-05-04 10:08 48.78318 17.97194 37084 ft 444 kts 178°
2026-05-04 10:09 48.72162 17.97744 37098 ft 444 kts 178°
2026-05-04 10:09 48.65996 17.98294 37095 ft 444 kts 178°
2026-05-04 10:10 48.59823 17.98843 37106 ft 445 kts 178°
2026-05-04 10:10 48.53649 17.99391 37103 ft 445 kts 178°
2026-05-04 10:11 48.47507 17.99934 37106 ft 445 kts 177°
2026-05-04 10:11 48.41315 18.00481 37099 ft 447 kts 177°
2026-05-04 10:12 48.35102 18.01028 37105 ft 447 kts 177°
2026-05-04 10:12 48.28892 18.01574 37103 ft 447 kts 177°
2026-05-04 10:13 48.22686 18.02117 37101 ft 447 kts 177°
2026-05-04 10:13 48.16478 18.02660 37107 ft 447 kts 177°
2026-05-04 10:14 48.10271 18.03201 37098 ft 446 kts 177°
2026-05-04 10:16 47.85436 18.05354 37109 ft 447 kts 177°
2026-05-04 10:16 47.79231 18.05889 37105 ft 447 kts 177°
2026-05-04 10:17 47.73156 18.07532 37124 ft 445 kts 161°
2026-05-04 10:19 47.49440 18.19041 37111 ft 449 kts 162°
2026-05-04 10:19 47.43509 18.21927 37104 ft 449 kts 162°
2026-05-04 10:20 47.37563 18.24814 37109 ft 450 kts 162°
2026-05-04 10:20 47.31651 18.27678 37115 ft 450 kts 162°
2026-05-04 10:21 47.25692 18.30557 37121 ft 451 kts 162°
2026-05-04 10:21 47.19722 18.33435 37123 ft 451 kts 161°
2026-05-04 10:22 47.10776 18.37735 37136 ft 451 kts 162°
2026-05-04 10:23 47.04805 18.40597 37136 ft 452 kts 162°
2026-05-04 10:25 46.80850 18.52009 37136 ft 453 kts 162°
2026-05-04 10:25 46.74847 18.54853 37140 ft 454 kts 162°
2026-05-04 10:26 46.68835 18.57693 37143 ft 454 kts 162°
2026-05-04 10:26 46.62823 18.60527 37147 ft 454 kts 162°
2026-05-04 10:27 46.56809 18.63356 37148 ft 455 kts 162°
2026-05-04 10:27 46.50784 18.66182 37147 ft 455 kts 162°
2026-05-04 10:28 46.44755 18.69005 37148 ft 455 kts 162°
2026-05-04 10:28 46.38729 18.71819 37146 ft 455 kts 161°
2026-05-04 10:29 46.32702 18.74628 37146 ft 455 kts 162°
2026-05-04 10:29 46.26673 18.77430 37147 ft 455 kts 162°
2026-05-04 10:30 46.20645 18.80226 37146 ft 455 kts 162°
2026-05-04 10:30 46.14619 18.83013 37148 ft 455 kts 162°
2026-05-04 10:31 46.08592 18.85797 37156 ft 455 kts 162°
2026-05-04 10:32 45.88131 18.97557 37126 ft 457 kts 147°
2026-05-04 10:33 45.82754 19.02400 37150 ft 457 kts 146°
2026-05-04 10:33 45.77385 19.07279 37142 ft 456 kts 146°
2026-05-04 10:34 45.72024 19.12145 37136 ft 457 kts 146°
2026-05-04 10:34 45.66653 19.17009 37139 ft 457 kts 146°
2026-05-04 10:35 45.61283 19.21858 37139 ft 457 kts 146°
2026-05-04 10:35 45.55906 19.26706 37137 ft 457 kts 146°
2026-05-04 10:36 45.50536 19.31534 37137 ft 457 kts 146°
2026-05-04 10:36 45.45156 19.36362 37136 ft 456 kts 146°
2026-05-04 10:37 45.39785 19.41170 37137 ft 457 kts 146°
2026-05-04 10:37 45.34403 19.45977 37135 ft 457 kts 146°
2026-05-04 10:39 45.16788 19.54688 37123 ft 462 kts 178°
2026-05-04 10:39 45.13576 19.54816 37142 ft 463 kts 178°
2026-05-04 10:40 45.07125 19.54994 37144 ft 463 kts 179°
2026-05-04 10:40 45.00681 19.55140 37146 ft 463 kts 179°
2026-05-04 10:41 44.94228 19.55282 37148 ft 464 kts 179°
2026-05-04 10:41 44.87769 19.55426 37144 ft 464 kts 179°
2026-05-04 10:42 44.81342 19.55566 37150 ft 465 kts 179°
2026-05-04 10:42 44.74865 19.55709 37144 ft 465 kts 179°
2026-05-04 10:43 44.69434 19.55827 37148 ft 467 kts 179°
2026-05-04 10:45 44.43441 19.56394 37144 ft 468 kts 179°
2026-05-04 10:45 44.36966 19.56534 37150 ft 469 kts 179°
2026-05-04 10:46 44.30446 19.56676 37147 ft 469 kts 179°
2026-05-04 10:46 44.23920 19.56816 37154 ft 469 kts 179°
2026-05-04 10:47 44.17388 19.56957 37148 ft 470 kts 179°
2026-05-04 10:47 44.10852 19.57097 37157 ft 470 kts 179°
2026-05-04 10:49 43.84677 19.57657 37153 ft 471 kts 179°
2026-05-04 10:50 43.78122 19.57796 37157 ft 471 kts 179°
2026-05-04 10:51 43.55184 19.58281 36843 ft 468 kts 179°
2026-05-04 10:52 43.51904 19.58350 35890 ft 476 kts 179°
2026-05-04 10:52 43.48575 19.58420 35088 ft 480 kts 179°
2026-05-04 10:52 43.45237 19.58490 34586 ft 476 kts 179°
2026-05-04 10:54 43.22762 19.58960 31250 ft 454 kts 179°
2026-05-04 10:54 43.19609 19.59026 30762 ft 451 kts 179°
2026-05-04 10:56 42.98005 19.59474 27407 ft 436 kts 179°
2026-05-04 10:56 42.94979 19.59536 26943 ft 434 kts 178°
2026-05-04 10:56 42.91968 19.59598 26498 ft 432 kts 179°
2026-05-04 10:57 42.88969 19.59660 26027 ft 430 kts 178°
2026-05-04 10:57 42.85983 19.59722 25579 ft 428 kts 178°
2026-05-04 10:57 42.83012 19.59783 25139 ft 426 kts 178°
2026-05-04 10:57 42.80054 19.59844 24690 ft 424 kts 178°
2026-05-04 10:58 42.77112 19.59904 24248 ft 422 kts 178°
2026-05-04 10:58 42.74178 19.59966 23793 ft 421 kts 178°
2026-05-04 10:58 42.71252 19.60024 23338 ft 420 kts 178°
2026-05-04 10:58 42.68335 19.60085 22884 ft 418 kts 178°
2026-05-04 10:59 42.65436 19.60145 22463 ft 415 kts 178°
2026-05-04 10:59 42.62555 19.60201 22027 ft 413 kts 178°
2026-05-04 10:59 42.59730 19.60259 21641 ft 411 kts 178°
2026-05-04 10:59 42.56874 19.60319 21187 ft 410 kts 178°
2026-05-04 11:00 42.54023 19.60367 20744 ft 410 kts 180°
2026-05-04 11:01 42.34639 19.55250 17733 ft 401 kts 191°
2026-05-04 11:02 42.31922 19.54509 17318 ft 398 kts 191°
2026-05-04 11:02 42.29212 19.53771 16901 ft 396 kts 191°
2026-05-04 11:05 41.93747 19.46316 11250 ft 320 kts 167°
2026-05-04 11:06 41.91589 19.46828 10869 ft 310 kts 168°
2026-05-04 11:06 41.89492 19.47326 10475 ft 302 kts 168°
2026-05-04 11:06 41.87455 19.47812 10118 ft 293 kts 168°
2026-05-04 11:06 41.85469 19.48283 9714 ft 288 kts 169°
2026-05-04 11:08 41.71541 19.51589 7058 ft 292 kts 170°
2026-05-04 11:10 41.61048 19.60445 4509 ft 242 kts 116°
2026-05-04 11:12 41.55519 19.70144 2624 ft 161 kts 170°
2026-05-04 11:12 41.54424 19.70327 2436 ft 154 kts 173°
2026-05-04 11:12 41.53377 19.70468 2253 ft 149 kts 173°
2026-05-04 11:12 41.52365 19.70604 2051 ft 145 kts 173°
2026-05-04 11:13 41.51367 19.70741 1825 ft 143 kts 173°
2026-05-04 11:13 41.50378 19.70871 1661 ft 143 kts 173°
2026-05-04 11:13 41.49388 19.71003 1453 ft 142 kts 171°
2026-05-04 11:13 41.48429 19.71260 1268 ft 139 kts 149°
2026-05-04 11:14 41.47479 19.71483 1139 ft 142 kts 182°
2026-05-04 11:14 41.46514 19.71417 837 ft 139 kts 177°
2026-05-04 11:14 41.45520 19.71509 712 ft 148 kts 175°
2026-05-04 11:16 41.40768 19.72153 136 ft 23 kts 174°
2026-05-04 11:16 41.40670 19.72044 135 ft 21 kts 256°
2026-05-04 11:16 41.40635 19.71845 134 ft 18 kts 261°
2026-05-04 11:17 41.40725 19.71762 134 ft 19 kts 354°
2026-05-04 11:17 41.40868 19.71733 134 ft 22 kts 351°
2026-05-04 11:19 41.41986 19.71573 121 ft 19 kts 354°
2026-05-04 11:19 41.42064 19.71558 122 ft 2 kts 320°
2026-05-04 11:19 41.42066 19.71542 124 ft 4 kts 280°
2026-05-04 11:19 41.42065 19.71501 124 ft 1 kts 265°
2026-05-04 11:20 41.42065 19.71498 124 ft 0 kts 265°